Theta_e
338 340 343 342 340 333 332 328 323 324 317 316 315 316 313 313 316 316 314 312 310 308 307 305 304 306 304 304 304 303 302 302 299 303 305 307 306 305 306 306 307 307 307
338 336 336 335 331 325 323 320 320 318 315 316 316 312 313 313 314 313 309 309 305 304 304 304 303 303 304 304 303 302 302 302 300 299 303 303 303 304 304 304 304 305 306
338 338 336 329 323 321 319 317 315 311 311 312 310 311 310 309 308 308 307 304 303 303 303 303 303 303 303 303 302 301 301 301 301 298 298 301 302 302 300 303 303 304 304
330 329 328 320 317 313 312 311 310 310 309 309 310 308 308 307 306 305 304 302 302 302 302 302 302 301 301 301 301 301 301 300 300 299 299 300 300 300 297 295 296 299 301
323 319 316 315 314 312 309 308 306 305 306 306 305 306 306 304 305 304 304 302 301 300 302 301 300 299 297 298 299 299 300 299 298 298 299 298 298 295 293 293 291 293 301
315 311 309 307 305 305 304 302 301 300 303 304 304 303 303 302 301 302 302 301 300 300 300 300 299 297 297 296 295 295 295 296 295 294 296 295 295 294 293 290 290 289 290
310 308 306 305 303 301 300 299 298 299 300 301 302 304 302 301 298 298 299 300 300 300 299 299 298 298 297 298 298 297 297 294 294 294 293 293 292 292 291 290 290 289 289
305 304 304 303 301 301 299 297 296 297 299 301 303 303 302 300 297 296 298 300 300 299 298 298 298 296 294 295 298 298 299 299 298 296 294 294 293 292 292 291 291 290 291
303 301 301 300 298 300 296 295 295 296 297 298 300 301 302 298 295 295 298 300 299 298 298 296 295 294 291 290 297 297 298 299 298 295 294 293 293 293 293 292 290 287 286
303 301 299 296 295 295 294 294 295 295 296 297 299 300 298 297 294 294 298 298 298 296 296 295 291 292 290 289 296 296 295 295 297 298 299 299 297 295 294 293 291 287 286
302 299 297 296 294 293 293 295 296 295 296 296 296 297 298 297 295 293 294 298 295 294 293 292 292 289 288 289 290 292 290 292 296 297 297 297 297 296 295 293 292 290 288
299 296 295 294 295 294 293 295 295 294 294 294 295 295 296 296 294 292 292 292 294 293 291 292 292 288 288 288 291 288 289 293 296 296 295 294 291 291 292 292 293 294 294
296 294 293 293 292 293 294 293 292 293 293 293 294 293 294 295 294 292 291 291 291 292 291 288 288 288 289 291 289 290 291 293 293 293 292 290 291 291 292 292 293 295 294
295 294 293 291 292 293 293 294 293 293 294 294 293 292 293 294 294 294 292 292 289 291 289 290 288 290 290 291 293 293 293 293 292 292 293 292 291 290 289 290 290 290 291
295 294 294 294 294 293 294 294 293 296 295 295 294 294 293 292 291 290 290 290 290 287 291 292 291 291 291 292 292 292 292 292 291 292 293 291 288 288 288 290 290 290 289
296 295 294 293 292 292 291 290 289 290 289 289 291 293 292 289 288 287 286 286 285 286 290 290 289 289 289 290 290 291 291 291 291 292 293 291 287 287 287 289 290 289 288
296 296 294 291 290 290 292 292 290 290 290 290 289 289 288 287 287 286 285 285 285 288 289 288 288 288 289 290 290 290 290 291 292 292 292 291 288 287 287 287 288 288 288
296 294 292 290 290 291 292 294 294 293 290 290 289 289 288 287 287 286 285 287 288 288 288 287 287 288 289 289 290 290 290 291 291 291 292 291 289 288 288 287 288 287 287
293 293 292 291 292 292 294 295 294 293 292 291 290 289 288 286 286 286 287 289 287 287 287 287 288 288 288 289 289 290 291 290 290 290 291 291 290 289 288 289 289 287 287
290 290 291 291 292 294 294 294 293 293 292 292 291 291 291 291 290 289 289 288 288 287 287 287 287 288 288 288 289 290 290 291 290 290 291 292 291 291 289 289 290 288 289
289 291 288 292 294 294 294 293 293 293 292 292 292 290 285 291 290 289 288 287 287 287 287 287 287 287 288 289 289 289 289 290 290 290 291 292 293 292 291 291 290 290 290
291 292 293 294 294 294 294 294 294 293 293 292 291 289 285 292 290 289 288 287 287 287 288 288 287 287 288 288 288 288 289 289 290 290 291 292 293 293 292 291 290 290 291
294 293 293 294 294 290 294 294 294 294 293 292 291 291 291 291 290 289 288 287 287 287 288 288 287 287 288 289 289 289 288 288 290 291 291 292 292 292 292 291 291 291 290
293 293 293 293 293 294 294 294 294 291 293 293 292 292 291 291 290 289 288 288 288 288 288 288 288 287 288 288 289 290 289 287 290 291 292 293 292 291 292 291 291 290 291
294 294 294 294 293 294 293 294 294 293 293 293 292 292 292 291 290 290 289 288 288 287 287 288 288 287 287 287 288 288 284 282 286 284 293 293 292 291 291 291 290 291 291
294 295 295 295 294 294 294 293 293 293 293 293 293 292 292 291 290 290 289 288 287 287 287 287 287 287 287 287 286 283 282 283 285 283 291 292 291 290 290 290 289 289 290
Wind_Speed
17 15 14 11 12 13 11 11 12 15 15 18 13 14 10 10 11 12 14 12 11 7 7 6 7 7 5 5 4 5 5 6 9 10 9 9 11 12 13 12 11 12 10
17 15 11 11 12 11 12 13 14 15 15 16 14 12 11 12 12 14 14 10 9 8 8 8 9 6 6 5 4 6 5 6 8 12 11 8 11 12 13 14 11 10 12
15 16 13 10 12 13 13 11 16 16 16 14 13 14 14 12 13 14 11 11 10 9 9 9 7 8 8 7 6 7 6 6 6 8 10 8 10 10 14 12 12 13 11
14 14 14 15 16 16 14 11 14 13 16 15 12 13 16 13 12 15 12 11 10 10 9 8 9 10 9 9 7 8 7 7 6 6 8 9 9 10 9 12 14 12 13
16 16 15 15 14 13 16 14 11 11 14 15 15 14 13 10 10 14 12 9 10 9 7 8 10 10 10 10 7 8 9 8 7 8 8 9 9 10 11 8 10 12 13
17 16 17 18 18 16 14 17 10 16 16 14 13 12 13 10 16 18 9 9 8 8 8 7 7 9 10 9 10 9 8 9 9 8 9 11 13 11 10 9 8 8 8
18 17 17 18 19 17 17 20 14 11 15 13 11 12 14 14 17 14 9 8 8 8 8 6 5 7 11 11 10 8 8 7 7 9 10 10 12 11 11 12 10 10 9
18 18 16 18 20 17 14 19 17 13 13 12 14 12 14 12 16 13 10 8 9 9 6 6 7 8 11 11 9 9 9 9 8 7 9 10 10 11 10 10 12 12 10
17 19 17 17 16 15 17 18 14 16 12 10 12 15 13 11 14 9 7 7 9 8 6 9 8 8 12 17 10 12 11 10 5 4 9 10 11 13 12 8 8 8 7
16 18 19 18 16 17 17 17 12 12 14 11 14 12 14 12 9 8 5 6 6 5 5 6 12 11 15 15 12 12 12 12 13 12 9 7 9 10 12 7 7 7 6
16 18 18 16 19 17 14 14 13 13 14 14 15 13 12 10 8 10 8 6 4 4 4 4 7 14 13 14 13 12 11 13 11 9 9 9 10 10 9 7 8 6 7
16 19 18 18 13 15 15 14 15 14 15 14 14 12 10 10 12 13 12 9 5 5 5 5 7 9 7 12 11 13 12 11 9 10 10 11 11 12 12 10 11 9 7
17 18 17 16 14 14 16 15 12 12 11 11 11 11 10 9 9 11 11 9 8 6 6 7 3 6 7 7 10 11 11 10 11 12 12 11 11 11 14 12 11 9 9
18 16 16 15 15 14 10 11 10 10 10 12 12 10 9 8 6 5 5 5 6 6 4 5 2 4 5 6 9 9 10 11 11 12 12 11 11 10 10 11 11 10 8
17 14 14 12 14 14 11 9 9 10 10 12 11 10 9 8 7 9 8 6 6 4 3 6 8 9 8 10 9 11 11 11 12 12 12 12 12 11 10 11 9 8 7
17 12 11 11 11 11 11 12 22 16 18 15 13 12 11 14 12 15 14 12 7 6 6 8 9 9 10 10 11 12 11 13 12 12 12 12 11 11 11 10 10 8 8
15 15 12 12 11 12 12 12 13 16 20 19 18 17 16 14 15 14 13 13 10 3 10 9 9 9 9 10 11 11 11 11 12 11 12 12 10 10 12 11 10 10 9
14 18 11 10 11 11 12 14 13 14 14 12 13 13 14 13 12 10 6 2 8 10 9 9 9 8 8 11 10 10 10 11 11 12 12 12 10 10 11 10 10 11 10
12 9 10 10 11 11 13 14 13 13 12 12 11 11 12 14 13 9 8 9 8 8 8 8 9 8 10 9 9 9 10 10 11 12 12 12 11 10 11 11 10 13 11
11 16 12 11 10 12 12 13 13 12 12 11 9 9 7 6 9 10 9 9 7 8 8 9 8 9 10 8 8 9 10 11 12 11 12 12 11 10 10 12 11 12 12
10 11 12 10 11 12 12 12 11 11 11 10 9 8 7 9 9 9 8 7 7 8 8 8 8 9 8 8 9 10 11 10 10 11 11 12 12 11 11 10 11 11 12
10 11 12 12 12 11 12 11 11 11 11 10 11 9 3 8 8 8 7 7 7 7 7 7 8 8 8 9 9 10 11 11 11 11 11 12 12 13 12 11 11 11 12
12 14 13 12 11 12 11 11 11 11 11 11 11 9 8 8 7 7 7 6 6 7 7 8 8 9 9 9 8 8 10 10 10 10 11 11 12 13 12 11 12 12 12
10 13 14 12 12 11 11 11 10 10 11 10 9 9 8 8 7 8 7 6 6 7 7 8 8 11 10 9 8 8 8 10 10 9 12 11 12 13 13 13 12 15 14
10 13 13 12 12 11 12 12 11 10 10 9 9 8 8 7 7 7 5 6 7 7 8 8 8 11 11 12 13 14 13 13 12 11 9 13 14 16 14 13 15 14 17
10 11 11 10 10 11 11 11 10 10 9 9 8 8 8 7 7 6 6 6 6 7 8 8 9 11 11 10 13 13 13 13 12 13 10 11 12 13 12 15 19 14 16
Wind_Direction
150 153 148 151 146 138 139 142 129 128 134 108 128 120 120 114 111 107 98 94 94 94 76 73 64 44 39 24 359 345 327 314 296 312 313 332 330 330 328 336 326 318 321
158 149 145 130 132 117 121 125 127 131 113 125 131 129 119 115 119 102 97 98 102 87 79 65 53 38 25 18 357 344 328 311 313 313 325 329 332 325 331 326 334 328 325
161 153 151 126 119 114 120 122 122 121 120 123 115 109 115 110 94 91 102 105 92 86 73 64 51 35 27 9 357 339 334 326 324 319 315 313 329 344 336 335 336 331 325
128 127 125 123 120 116 113 116 127 128 125 112 107 124 109 106 108 101 103 98 98 85 76 63 47 32 20 2 354 342 338 336 344 323 314 332 338 347 338 336 334 340 324
112 111 111 111 115 116 115 112 105 116 105 110 111 103 105 104 103 109 99 108 98 98 84 66 48 32 21 19 348 349 347 357 342 337 333 332 339 341 346 332 324 322 325
115 115 113 108 103 105 109 104 103 95 92 101 100 116 111 101 96 95 121 106 106 103 88 68 42 19 9 2 360 7 9 7 348 340 334 332 332 331 333 324 319 330 331
114 114 116 115 110 111 116 102 100 105 96 94 104 99 103 104 99 102 114 106 105 90 73 50 25 15 1 351 359 2 32 13 335 319 319 321 318 330 318 319 322 315 298
113 114 115 116 116 117 122 115 102 98 95 106 109 115 98 107 104 97 102 103 96 80 70 42 21 10 14 345 357 10 8 359 355 334 320 313 317 321 315 310 309 306 303
115 114 113 111 110 125 117 103 116 107 105 114 108 103 115 109 101 113 118 115 91 82 64 43 21 16 3 4 5 11 359 5 337 280 291 306 305 310 319 325 325 323 327
122 120 111 108 111 107 106 110 101 108 105 103 97 105 106 104 97 110 114 89 101 97 68 56 48 27 19 12 20 5 359 356 350 339 343 341 347 343 340 337 310 309 312
118 111 109 116 109 103 106 103 115 109 106 107 107 98 94 99 90 77 62 93 91 78 58 49 41 26 18 15 9 21 358 321 343 340 352 354 354 356 344 334 315 300 299
112 110 106 107 110 113 115 113 113 107 105 107 105 100 98 97 85 75 71 66 62 85 66 57 56 14 8 33 21 1 319 321 355 357 3 359 357 342 338 326 317 305 281
102 100 110 104 113 108 115 115 110 111 118 113 109 111 109 103 93 81 71 77 49 74 55 58 12 16 15 47 33 356 356 5 2 4 4 353 348 335 329 328 321 318 302
109 113 110 115 112 110 113 113 118 121 120 111 113 114 114 112 109 106 104 107 115 90 119 71 36 56 53 23 21 17 21 11 5 2 360 352 345 340 339 333 327 333 331
113 114 113 109 109 109 98 104 106 92 96 117 117 123 120 104 75 64 54 61 55 39 3 51 44 33 30 30 24 22 18 8 9 4 359 355 351 338 338 332 329 333 340
120 119 112 108 110 111 106 88 58 78 82 78 78 93 81 88 95 78 69 60 37 325 60 47 43 34 30 21 21 17 12 9 4 1 356 4 345 336 333 333 335 341 340
119 120 111 116 116 115 114 112 110 75 76 86 84 81 84 100 92 90 86 70 21 24 56 50 44 32 23 28 21 11 4 7 357 359 2 1 342 336 337 336 340 342 343
109 106 114 117 115 114 117 117 118 115 110 103 76 91 91 86 78 64 28 190 68 59 54 44 46 33 25 30 17 6 359 360 358 358 355 358 346 339 340 341 342 342 341
113 113 113 115 114 116 124 122 118 119 116 116 113 97 91 88 85 74 46 61 61 56 49 46 39 32 34 24 10 5 359 358 356 354 347 352 351 347 345 345 343 346 342
103 108 108 115 120 124 126 124 126 128 127 122 119 117 123 116 78 67 63 59 57 56 46 45 35 35 30 17 11 2 1 2 359 351 344 350 353 356 349 347 349 353 353
114 118 122 123 130 130 129 127 127 124 121 117 111 86 53 89 84 73 68 65 56 52 48 43 37 38 29 21 11 3 2 360 355 347 344 351 354 359 357 351 351 352 2
126 127 133 132 130 129 125 126 125 120 115 115 108 103 79 89 84 82 76 67 60 55 48 42 44 35 26 21 9 358 354 352 350 346 349 349 355 1 1 2 358 1 5
128 132 130 131 121 120 131 129 126 124 122 117 122 117 102 97 92 83 75 70 62 58 52 49 42 37 26 23 9 354 351 345 340 345 345 346 359 2 4 6 4 358 15
125 134 131 130 137 134 136 131 124 122 125 122 123 120 113 101 93 84 78 74 70 62 53 53 47 37 26 19 7 359 4 350 338 347 347 356 5 5 8 12 12 11 18
133 131 136 135 142 135 132 132 132 127 125 130 122 121 123 118 106 94 86 77 67 62 57 52 43 35 27 16 11 6 359 347 347 326 3 6 11 12 15 15 14 18 20
131 137 135 137 132 134 133 130 128 133 133 127 131 130 130 120 106 96 83 74 74 65 58 51 43 35 24 20 12 354 350 351 349 334 355 17 13 21 13 19 18 21 20